Year,Month,Day,Hour,Minute,Value (Times are PST for temperature in C)
2020,04,16,00,00,10.60
2020,04,16,00,01,10.60
2020,04,16,00,02,10.60
2020,04,16,00,03,10.60
2020,04,16,00,04,10.60
2020,04,16,00,05,10.60
2020,04,16,00,06,10.70
2020,04,16,00,07,10.70
2020,04,16,00,08,10.80
2020,04,16,00,09,10.90
2020,04,16,00,10,10.90
2020,04,16,00,11,11.00
2020,04,16,00,12,11.10
2020,04,16,00,13,11.10
2020,04,16,00,14,11.20
2020,04,16,00,15,11.20
2020,04,16,00,16,11.20
2020,04,16,00,17,11.10
2020,04,16,00,18,11.00
2020,04,16,00,19,10.90
2020,04,16,00,20,10.70
2020,04,16,00,21,10.60
2020,04,16,00,22,10.60
2020,04,16,00,23,10.50
2020,04,16,00,24,10.40
2020,04,16,00,25,10.30
2020,04,16,00,26,10.20
2020,04,16,00,27,10.20
2020,04,16,00,28,10.20
2020,04,16,00,29,10.20
2020,04,16,00,30,10.30
2020,04,16,00,31,10.40
2020,04,16,00,32,10.40
2020,04,16,00,33,10.50
2020,04,16,00,34,10.60
2020,04,16,00,35,10.60
2020,04,16,00,36,10.60
2020,04,16,00,37,10.60
2020,04,16,00,38,10.60
2020,04,16,00,39,10.60
2020,04,16,00,40,10.60
2020,04,16,00,41,10.40
2020,04,16,00,42,10.30
2020,04,16,00,43,10.20
2020,04,16,00,44,10.10
2020,04,16,00,45,10.10
2020,04,16,00,46,9.90
2020,04,16,00,47,9.90
2020,04,16,00,48,9.80
2020,04,16,00,49,9.80
2020,04,16,00,50,9.70
2020,04,16,00,51,9.70
2020,04,16,00,52,9.80
2020,04,16,00,53,9.80
2020,04,16,00,54,9.90
2020,04,16,00,55,9.90
2020,04,16,00,56,10.00
2020,04,16,00,57,10.10
2020,04,16,00,58,10.10
2020,04,16,00,59,10.10
2020,04,16,01,00,10.10
2020,04,16,01,01,10.10
2020,04,16,01,02,10.10
2020,04,16,01,03,10.10
2020,04,16,01,04,10.10
2020,04,16,01,05,10.10
2020,04,16,01,06,10.20
2020,04,16,01,07,10.20
2020,04,16,01,08,10.20
2020,04,16,01,09,10.20
2020,04,16,01,10,10.30
2020,04,16,01,11,10.40
2020,04,16,01,12,10.50
2020,04,16,01,13,10.60
2020,04,16,01,14,10.70
2020,04,16,01,15,10.80
2020,04,16,01,16,10.90
2020,04,16,01,17,10.90
2020,04,16,01,18,11.10
2020,04,16,01,19,11.20
2020,04,16,01,20,11.20
2020,04,16,01,21,11.30
2020,04,16,01,22,11.40
2020,04,16,01,23,11.40
2020,04,16,01,24,11.40
2020,04,16,01,25,11.40
2020,04,16,01,26,11.40
2020,04,16,01,27,11.40
2020,04,16,01,28,11.40
2020,04,16,01,29,11.40
2020,04,16,01,30,11.30
2020,04,16,01,31,11.30
2020,04,16,01,32,11.20
2020,04,16,01,33,11.20
2020,04,16,01,34,11.20
2020,04,16,01,35,11.20
2020,04,16,01,36,11.10
2020,04,16,01,37,11.10
2020,04,16,01,38,11.10
2020,04,16,01,39,11.10
2020,04,16,01,40,11.10
2020,04,16,01,41,11.00
2020,04,16,01,42,10.90
2020,04,16,01,43,10.90
2020,04,16,01,44,10.80
2020,04,16,01,45,10.80
2020,04,16,01,46,10.70
2020,04,16,01,47,10.70
2020,04,16,01,48,10.70
2020,04,16,01,49,10.70
2020,04,16,01,50,10.60
2020,04,16,01,51,10.60
2020,04,16,01,52,10.60
2020,04,16,01,53,10.60
2020,04,16,01,54,10.60
2020,04,16,01,55,10.60
2020,04,16,01,56,10.60
2020,04,16,01,57,10.60
2020,04,16,01,58,10.50
2020,04,16,01,59,10.40
2020,04,16,02,00,10.40
2020,04,16,02,01,10.30
2020,04,16,02,02,10.20
2020,04,16,02,03,10.20
2020,04,16,02,04,10.10
2020,04,16,02,05,10.00
2020,04,16,02,06,9.90
2020,04,16,02,07,9.90
2020,04,16,02,08,9.80
2020,04,16,02,09,9.80
2020,04,16,02,10,9.70
2020,04,16,02,11,9.70
2020,04,16,02,12,9.70
2020,04,16,02,13,9.70
2020,04,16,02,14,9.80
2020,04,16,02,15,9.80
2020,04,16,02,16,9.90
2020,04,16,02,17,9.90
2020,04,16,02,18,9.90
2020,04,16,02,19,9.90
2020,04,16,02,20,9.90
2020,04,16,02,21,9.80
2020,04,16,02,22,9.70
2020,04,16,02,23,9.50
2020,04,16,02,24,9.30
2020,04,16,02,25,9.20
2020,04,16,02,26,9.10
2020,04,16,02,27,9.00
2020,04,16,02,28,8.90
2020,04,16,02,29,8.90
2020,04,16,02,30,9.00
2020,04,16,02,31,9.10
2020,04,16,02,32,9.10
2020,04,16,02,33,9.10
2020,04,16,02,34,9.10
2020,04,16,02,35,9.00
2020,04,16,02,36,9.00
2020,04,16,02,37,9.10
2020,04,16,02,38,9.20
2020,04,16,02,39,9.30
2020,04,16,02,40,9.40
2020,04,16,02,41,9.50
2020,04,16,02,42,9.60
2020,04,16,02,43,9.70
2020,04,16,02,44,9.80
2020,04,16,02,45,9.80
2020,04,16,02,46,9.70
2020,04,16,02,47,9.50
2020,04,16,02,48,9.50
2020,04,16,02,49,9.40
2020,04,16,02,50,9.30
2020,04,16,02,51,9.30
2020,04,16,02,52,9.30
2020,04,16,02,53,9.20
2020,04,16,02,54,9.20
2020,04,16,02,55,9.20
2020,04,16,02,56,9.30
2020,04,16,02,57,9.30
2020,04,16,02,58,9.30
2020,04,16,02,59,9.30
2020,04,16,03,00,9.30
2020,04,16,03,01,9.30
2020,04,16,03,02,9.30
2020,04,16,03,03,9.20
2020,04,16,03,04,9.20
2020,04,16,03,05,9.20
2020,04,16,03,06,9.20
2020,04,16,03,07,9.20
2020,04,16,03,08,9.20
2020,04,16,03,09,9.20
2020,04,16,03,10,9.20
2020,04,16,03,11,9.20
2020,04,16,03,12,9.20
2020,04,16,03,13,9.20
2020,04,16,03,14,9.20
2020,04,16,03,15,9.20
2020,04,16,03,16,9.20
2020,04,16,03,17,9.20
2020,04,16,03,18,9.20
2020,04,16,03,19,9.30
2020,04,16,03,20,9.30
2020,04,16,03,21,9.40
2020,04,16,03,22,9.40
2020,04,16,03,23,9.50
2020,04,16,03,24,9.50
2020,04,16,03,25,9.50
2020,04,16,03,26,9.50
2020,04,16,03,27,9.40
2020,04,16,03,28,9.40
2020,04,16,03,29,9.30
2020,04,16,03,30,9.20
2020,04,16,03,31,9.20
2020,04,16,03,32,9.20
2020,04,16,03,33,9.10
2020,04,16,03,34,9.10
2020,04,16,03,35,9.00
2020,04,16,03,36,9.00
2020,04,16,03,37,8.90
2020,04,16,03,38,8.90
2020,04,16,03,39,8.90
2020,04,16,03,40,8.80
2020,04,16,03,41,8.80
2020,04,16,03,42,8.90
2020,04,16,03,43,9.00
2020,04,16,03,44,9.20
2020,04,16,03,45,9.30
2020,04,16,03,46,9.40
2020,04,16,03,47,9.50
2020,04,16,03,48,9.60
2020,04,16,03,49,9.70
2020,04,16,03,50,9.70
2020,04,16,03,51,9.60
2020,04,16,03,52,9.50
2020,04,16,03,53,9.50
2020,04,16,03,54,9.40
2020,04,16,03,55,9.30
2020,04,16,03,56,9.20
2020,04,16,03,57,9.20
2020,04,16,03,58,9.20
2020,04,16,03,59,9.20
2020,04,16,04,00,9.10
2020,04,16,04,01,9.10
2020,04,16,04,02,9.10
2020,04,16,04,03,9.10
2020,04,16,04,04,9.10
2020,04,16,04,05,9.10
2020,04,16,04,06,9.00
2020,04,16,04,07,8.90
2020,04,16,04,08,8.90
2020,04,16,04,09,8.80
2020,04,16,04,10,8.70
2020,04,16,04,11,8.70
2020,04,16,04,12,8.70
2020,04,16,04,13,8.70
2020,04,16,04,14,8.70
2020,04,16,04,15,8.70
2020,04,16,04,16,8.70
2020,04,16,04,17,8.80
2020,04,16,04,18,8.90
2020,04,16,04,19,8.90
2020,04,16,04,20,8.90
2020,04,16,04,21,9.00
2020,04,16,04,22,9.10
2020,04,16,04,23,9.10
2020,04,16,04,24,9.20
2020,04,16,04,25,9.20
2020,04,16,04,26,9.30
2020,04,16,04,27,9.40
2020,04,16,04,28,9.50
2020,04,16,04,29,9.60
2020,04,16,04,30,9.70
2020,04,16,04,31,9.70
2020,04,16,04,32,9.70
2020,04,16,04,33,9.70
2020,04,16,04,34,9.70
2020,04,16,04,35,9.50
2020,04,16,04,36,9.50
2020,04,16,04,37,9.40
2020,04,16,04,38,9.40
2020,04,16,04,39,9.40
2020,04,16,04,40,9.40
2020,04,16,04,41,9.40
2020,04,16,04,42,9.40
2020,04,16,04,43,9.50
2020,04,16,04,44,9.50
2020,04,16,04,45,9.50
2020,04,16,04,46,9.50
2020,04,16,04,47,9.50
2020,04,16,04,48,9.50
2020,04,16,04,49,9.60
2020,04,16,04,50,9.60
2020,04,16,04,51,9.60
2020,04,16,04,52,9.70
2020,04,16,04,53,9.70
2020,04,16,04,54,9.70
2020,04,16,04,55,9.70
2020,04,16,04,56,9.70
2020,04,16,04,57,9.70
2020,04,16,04,58,9.60
2020,04,16,04,59,9.60
2020,04,16,05,00,9.50
2020,04,16,05,01,9.40
2020,04,16,05,02,9.40
2020,04,16,05,03,9.30
2020,04,16,05,04,9.30
2020,04,16,05,05,9.20
2020,04,16,05,06,9.20
2020,04,16,05,07,9.20
2020,04,16,05,08,9.10
2020,04,16,05,09,9.00
2020,04,16,05,10,9.00
2020,04,16,05,11,8.90
2020,04,16,05,12,8.90
2020,04,16,05,13,8.80
2020,04,16,05,14,8.80
2020,04,16,05,15,8.80
2020,04,16,05,16,8.80
2020,04,16,05,17,8.70
2020,04,16,05,18,8.70
2020,04,16,05,19,8.80
2020,04,16,05,20,8.80
2020,04,16,05,21,8.80
2020,04,16,05,22,8.90
2020,04,16,05,23,8.90
2020,04,16,05,24,9.00
2020,04,16,05,25,9.00
2020,04,16,05,26,9.10
2020,04,16,05,27,9.00
2020,04,16,05,28,9.00
2020,04,16,05,29,9.00
2020,04,16,05,30,9.00
2020,04,16,05,31,9.00
2020,04,16,05,32,9.10
2020,04,16,05,33,9.10
2020,04,16,05,34,9.20
2020,04,16,05,35,9.20
2020,04,16,05,36,9.30
2020,04,16,05,37,9.30
2020,04,16,05,38,9.40
2020,04,16,05,39,9.40
2020,04,16,05,40,9.50
2020,04,16,05,41,9.40
2020,04,16,05,42,9.40
2020,04,16,05,43,9.40
2020,04,16,05,44,9.30
2020,04,16,05,45,9.30
2020,04,16,05,46,9.30
2020,04,16,05,47,9.20
2020,04,16,05,48,9.20
2020,04,16,05,49,9.20
2020,04,16,05,50,9.20
2020,04,16,05,51,9.20
2020,04,16,05,52,9.20
2020,04,16,05,53,9.20
2020,04,16,05,54,9.20
2020,04,16,05,55,9.20
2020,04,16,05,56,9.30
2020,04,16,05,57,9.30
2020,04,16,05,58,9.30
2020,04,16,05,59,9.30
2020,04,16,06,00,9.30
2020,04,16,06,01,9.20
2020,04,16,06,02,9.20
2020,04,16,06,03,9.20
2020,04,16,06,04,9.20
2020,04,16,06,05,9.20
2020,04,16,06,06,9.20
2020,04,16,06,07,9.20
2020,04,16,06,08,9.20
2020,04,16,06,09,9.20
2020,04,16,06,10,9.20
2020,04,16,06,11,9.20
2020,04,16,06,12,9.20
2020,04,16,06,13,9.20
2020,04,16,06,14,9.20
2020,04,16,06,15,9.20
2020,04,16,06,16,9.20
2020,04,16,06,17,9.20
2020,04,16,06,18,9.20
2020,04,16,06,19,9.20
2020,04,16,06,20,9.20
2020,04,16,06,21,9.30
2020,04,16,06,22,9.30
2020,04,16,06,23,9.30
2020,04,16,06,24,9.30
2020,04,16,06,25,9.30
2020,04,16,06,26,9.30
2020,04,16,06,27,9.30
2020,04,16,06,28,9.40
2020,04,16,06,29,9.40
2020,04,16,06,30,9.40
2020,04,16,06,31,9.40
2020,04,16,06,32,9.40
2020,04,16,06,33,9.50
2020,04,16,06,34,9.50
2020,04,16,06,35,9.50
2020,04,16,06,36,9.50
2020,04,16,06,37,9.50
2020,04,16,06,38,9.50
2020,04,16,06,39,9.50
2020,04,16,06,40,9.50
2020,04,16,06,41,9.50
2020,04,16,06,42,9.50
2020,04,16,06,43,9.50
2020,04,16,06,44,9.60
2020,04,16,06,45,9.60
2020,04,16,06,46,9.50
2020,04,16,06,47,9.50
2020,04,16,06,48,9.50
2020,04,16,06,49,9.40
2020,04,16,06,50,9.40
2020,04,16,06,51,9.40
2020,04,16,06,52,9.30
2020,04,16,06,53,9.30
2020,04,16,06,54,9.30
2020,04,16,06,55,9.30
2020,04,16,06,56,9.20
2020,04,16,06,57,9.30
2020,04,16,06,58,9.30
2020,04,16,06,59,9.30
2020,04,16,07,00,9.30
2020,04,16,07,01,9.30
2020,04,16,07,02,9.30
2020,04,16,07,03,9.30
2020,04,16,07,04,9.30
2020,04,16,07,05,9.30
2020,04,16,07,06,9.30
2020,04,16,07,07,9.30
2020,04,16,07,08,9.30
2020,04,16,07,09,9.30
2020,04,16,07,10,9.30
2020,04,16,07,11,9.40
2020,04,16,07,12,9.40
2020,04,16,07,13,9.40
2020,04,16,07,14,9.40
2020,04,16,07,15,9.50
2020,04,16,07,16,9.60
2020,04,16,07,17,9.60
2020,04,16,07,18,9.70
2020,04,16,07,19,9.70
2020,04,16,07,20,9.70
2020,04,16,07,21,9.70
2020,04,16,07,22,9.70
2020,04,16,07,23,9.70
2020,04,16,07,24,9.70
2020,04,16,07,25,9.70
2020,04,16,07,26,9.70
2020,04,16,07,27,9.70
2020,04,16,07,28,9.70
2020,04,16,07,29,9.70
2020,04,16,07,30,9.70
2020,04,16,07,31,9.70
2020,04,16,07,32,9.70
2020,04,16,07,33,9.80
2020,04,16,07,34,9.80
2020,04,16,07,35,9.80
2020,04,16,07,36,9.90
2020,04,16,07,37,9.90
2020,04,16,07,38,9.90
2020,04,16,07,39,10.10
2020,04,16,07,40,10.10
2020,04,16,07,41,10.10
2020,04,16,07,42,10.10
2020,04,16,07,43,10.20
2020,04,16,07,44,10.20
2020,04,16,07,45,10.30
2020,04,16,07,46,10.30
2020,04,16,07,47,10.40
2020,04,16,07,48,10.40
2020,04,16,07,49,10.40
2020,04,16,07,50,10.50
2020,04,16,07,51,10.60
2020,04,16,07,52,10.60
2020,04,16,07,53,10.70
2020,04,16,07,54,10.70
2020,04,16,07,55,10.70
2020,04,16,07,56,10.80
2020,04,16,07,57,10.80
2020,04,16,07,58,10.90
2020,04,16,07,59,10.90
2020,04,16,08,00,10.90
2020,04,16,08,01,10.90
2020,04,16,08,02,11.00
2020,04,16,08,03,11.10
2020,04,16,08,04,11.10
2020,04,16,08,05,11.10
2020,04,16,08,06,11.10
2020,04,16,08,07,11.20
2020,04,16,08,08,11.30
2020,04,16,08,09,11.30
2020,04,16,08,10,11.40
2020,04,16,08,11,11.40
2020,04,16,08,12,11.40
2020,04,16,08,13,11.40
2020,04,16,08,14,11.50
2020,04,16,08,15,11.60
2020,04,16,08,16,11.60
2020,04,16,08,17,11.60
2020,04,16,08,18,11.60
2020,04,16,08,19,11.60
2020,04,16,08,20,11.70
2020,04,16,08,21,11.70
2020,04,16,08,22,11.70
2020,04,16,08,23,11.80
2020,04,16,08,24,11.80
2020,04,16,08,25,11.80
2020,04,16,08,26,11.80
2020,04,16,08,27,11.90
2020,04,16,08,28,11.90
2020,04,16,08,29,11.90
2020,04,16,08,30,12.00
2020,04,16,08,31,12.10
2020,04,16,08,32,12.10
2020,04,16,08,33,12.10
2020,04,16,08,34,12.20
2020,04,16,08,35,12.30
2020,04,16,08,36,12.30
2020,04,16,08,37,12.30
2020,04,16,08,38,12.40
2020,04,16,08,39,12.40
2020,04,16,08,40,12.40
2020,04,16,08,41,12.40
2020,04,16,08,42,12.50
2020,04,16,08,43,12.50
2020,04,16,08,44,12.60
2020,04,16,08,45,12.70
2020,04,16,08,46,12.70
2020,04,16,08,47,12.70
2020,04,16,08,48,12.70
2020,04,16,08,49,12.70
2020,04,16,08,50,12.60
2020,04,16,08,51,12.60
2020,04,16,08,52,12.60
2020,04,16,08,53,12.60
2020,04,16,08,54,12.60
2020,04,16,08,55,12.60
2020,04,16,08,56,12.60
2020,04,16,08,57,12.60
2020,04,16,08,58,12.60
2020,04,16,08,59,12.60
2020,04,16,09,00,12.60
2020,04,16,09,01,12.60
2020,04,16,09,02,12.60
2020,04,16,09,03,12.70
2020,04,16,09,04,12.80
2020,04,16,09,05,12.80
2020,04,16,09,06,12.80
2020,04,16,09,07,12.80
2020,04,16,09,08,12.80
2020,04,16,09,09,12.90
2020,04,16,09,10,12.90
2020,04,16,09,11,12.90
2020,04,16,09,12,12.90
2020,04,16,09,13,12.90
2020,04,16,09,14,12.90
2020,04,16,09,15,12.90
2020,04,16,09,16,13.00
2020,04,16,09,17,13.00
2020,04,16,09,18,13.00
2020,04,16,09,19,13.10
2020,04,16,09,20,13.10
2020,04,16,09,21,13.20
2020,04,16,09,22,13.20
2020,04,16,09,23,13.20
2020,04,16,09,24,13.20
2020,04,16,09,25,13.20
2020,04,16,09,26,13.20
2020,04,16,09,27,13.20
2020,04,16,09,28,13.20
2020,04,16,09,29,13.20
2020,04,16,09,30,13.20
2020,04,16,09,31,13.30
2020,04,16,09,32,13.30
2020,04,16,09,33,13.40
2020,04,16,09,34,13.50
2020,04,16,09,35,13.50
2020,04,16,09,36,13.60
2020,04,16,09,37,13.50
2020,04,16,09,38,13.60
2020,04,16,09,39,13.60
2020,04,16,09,40,13.70
2020,04,16,09,41,13.70
2020,04,16,09,42,13.70
2020,04,16,09,43,13.70
2020,04,16,09,44,13.70
2020,04,16,09,45,13.70
2020,04,16,09,46,13.70
2020,04,16,09,47,13.70
2020,04,16,09,48,13.70
2020,04,16,09,49,13.80
2020,04,16,09,50,13.90
2020,04,16,09,51,13.90
2020,04,16,09,52,13.90
2020,04,16,09,53,13.80
2020,04,16,09,54,13.80
2020,04,16,09,55,13.80
2020,04,16,09,56,13.80
2020,04,16,09,57,13.90
2020,04,16,09,58,14.00
2020,04,16,09,59,14.10
2020,04,16,10,00,14.10
2020,04,16,10,01,14.10
2020,04,16,10,02,14.10
2020,04,16,10,03,14.10
2020,04,16,10,04,14.20
2020,04,16,10,05,14.20
2020,04,16,10,06,14.30
2020,04,16,10,07,14.40
2020,04,16,10,08,14.50
2020,04,16,10,09,14.50
2020,04,16,10,10,14.60
2020,04,16,10,11,14.60
2020,04,16,10,12,14.70
2020,04,16,10,13,14.60
2020,04,16,10,14,14.50
2020,04,16,10,15,14.40
2020,04,16,10,16,14.40
2020,04,16,10,17,14.40
2020,04,16,10,18,14.30
2020,04,16,10,19,14.40
2020,04,16,10,20,14.40
2020,04,16,10,21,14.40
2020,04,16,10,22,14.50
2020,04,16,10,23,14.40
2020,04,16,10,24,14.30
2020,04,16,10,25,14.20
2020,04,16,10,26,14.20
2020,04,16,10,27,14.30
2020,04,16,10,28,14.20
2020,04,16,10,29,14.20
2020,04,16,10,30,14.20
2020,04,16,10,31,14.20
2020,04,16,10,32,14.30
2020,04,16,10,33,14.30
2020,04,16,10,34,14.30
2020,04,16,10,35,14.40
2020,04,16,10,36,14.40
2020,04,16,10,37,14.50
2020,04,16,10,38,14.60
2020,04,16,10,39,14.80
2020,04,16,10,40,14.90
2020,04,16,10,41,15.00
2020,04,16,10,42,15.10
2020,04,16,10,43,15.20
2020,04,16,10,44,15.30
2020,04,16,10,45,15.30
2020,04,16,10,46,15.40
2020,04,16,10,47,15.40
2020,04,16,10,48,15.50
2020,04,16,10,49,15.60
2020,04,16,10,50,15.70
2020,04,16,10,51,15.80
2020,04,16,10,52,15.80
2020,04,16,10,53,15.80
2020,04,16,10,54,15.90
2020,04,16,10,55,16.10
2020,04,16,10,56,16.10
2020,04,16,10,57,16.10
2020,04,16,10,58,16.10
2020,04,16,10,59,16.30
2020,04,16,11,00,16.40
2020,04,16,11,01,16.40
2020,04,16,11,02,16.40
2020,04,16,11,03,16.50
2020,04,16,11,04,16.60
2020,04,16,11,05,16.60
2020,04,16,11,06,16.70
2020,04,16,11,07,16.70
2020,04,16,11,08,16.70
2020,04,16,11,09,16.70
2020,04,16,11,10,16.70
2020,04,16,11,11,16.70
2020,04,16,11,12,16.70
2020,04,16,11,13,16.70
2020,04,16,11,14,16.70
2020,04,16,11,15,16.60
2020,04,16,11,16,16.50
2020,04,16,11,17,16.40
2020,04,16,11,18,16.40
2020,04,16,11,19,16.50
2020,04,16,11,20,16.60
2020,04,16,11,21,16.70
2020,04,16,11,22,16.70
2020,04,16,11,23,16.70
2020,04,16,11,24,16.70
2020,04,16,11,25,16.70
2020,04,16,11,26,16.70
2020,04,16,11,27,16.70
2020,04,16,11,28,16.70
2020,04,16,11,29,16.70
2020,04,16,11,30,16.70
2020,04,16,11,31,16.70
2020,04,16,11,32,16.70
2020,04,16,11,33,16.60
2020,04,16,11,34,16.60
2020,04,16,11,35,16.60
2020,04,16,11,36,16.60
2020,04,16,11,37,16.60
2020,04,16,11,38,16.60
2020,04,16,11,39,16.60
2020,04,16,11,40,16.70
2020,04,16,11,41,16.90
2020,04,16,11,42,16.90
2020,04,16,11,43,16.90
2020,04,16,11,44,16.70
2020,04,16,11,45,16.60
2020,04,16,11,46,16.60
2020,04,16,11,47,16.60
2020,04,16,11,48,16.70
2020,04,16,11,49,16.70
2020,04,16,11,50,16.80
2020,04,16,11,51,16.90
2020,04,16,11,52,17.00
2020,04,16,11,53,17.10
2020,04,16,11,54,17.20
2020,04,16,11,55,17.20
2020,04,16,11,56,17.30
2020,04,16,11,57,17.30
2020,04,16,11,58,17.30
2020,04,16,11,59,17.30
2020,04,16,12,00,17.30
2020,04,16,12,01,17.30
2020,04,16,12,02,17.30
2020,04,16,12,03,17.30
2020,04,16,12,04,17.20
2020,04,16,12,05,17.10
2020,04,16,12,06,17.00
2020,04,16,12,07,17.00
2020,04,16,12,08,17.00
2020,04,16,12,09,17.00
2020,04,16,12,10,17.20
2020,04,16,12,11,17.30
2020,04,16,12,12,17.40
2020,04,16,12,13,17.50
2020,04,16,12,14,17.60
2020,04,16,12,15,17.70
2020,04,16,12,16,17.70
2020,04,16,12,17,17.50
2020,04,16,12,18,17.40
2020,04,16,12,19,17.50
2020,04,16,12,20,17.50
2020,04,16,12,21,17.70
2020,04,16,12,22,17.70
2020,04,16,12,23,17.70
2020,04,16,12,24,17.60
2020,04,16,12,25,17.60
2020,04,16,12,26,17.60
2020,04,16,12,27,17.70
2020,04,16,12,28,17.70
2020,04,16,12,29,17.80
2020,04,16,12,30,17.80
2020,04,16,12,31,17.80
2020,04,16,12,32,17.70
2020,04,16,12,33,17.70
2020,04,16,12,34,17.70
2020,04,16,12,35,17.70
2020,04,16,12,36,17.70
2020,04,16,12,37,17.70
2020,04,16,12,38,17.60
2020,04,16,12,39,17.60
2020,04,16,12,40,17.70
2020,04,16,12,41,17.70
2020,04,16,12,42,17.80
2020,04,16,12,43,17.90
2020,04,16,12,44,17.90
2020,04,16,12,45,17.90
2020,04,16,12,46,18.10
2020,04,16,12,47,18.10
2020,04,16,12,48,18.10
2020,04,16,12,49,18.20
2020,04,16,12,50,18.20
2020,04,16,12,51,18.20
2020,04,16,12,52,18.10
2020,04,16,12,53,17.90
2020,04,16,12,54,17.90
2020,04,16,12,55,17.90
2020,04,16,12,56,17.90
2020,04,16,12,57,17.90
2020,04,16,12,58,18.00
2020,04,16,12,59,18.10
2020,04,16,13,00,18.30
2020,04,16,13,01,18.50
2020,04,16,13,02,18.60
2020,04,16,13,03,18.70
2020,04,16,13,04,18.70
2020,04,16,13,05,18.70
2020,04,16,13,06,18.80
2020,04,16,13,07,18.70
2020,04,16,13,08,18.70
2020,04,16,13,09,18.60
2020,04,16,13,10,18.60
2020,04,16,13,11,18.40
2020,04,16,13,12,18.40
2020,04,16,13,13,18.50
2020,04,16,13,14,18.50
2020,04,16,13,15,18.30
2020,04,16,13,16,18.10
2020,04,16,13,17,17.80
2020,04,16,13,18,17.60
2020,04,16,13,19,17.40
2020,04,16,13,20,17.20
2020,04,16,13,21,17.10
2020,04,16,13,22,17.00
2020,04,16,13,23,16.90
2020,04,16,13,24,16.90
2020,04,16,13,25,16.80
2020,04,16,13,26,16.80
2020,04,16,13,27,16.80
2020,04,16,13,28,16.80
2020,04,16,13,29,17.00
2020,04,16,13,30,17.10
2020,04,16,13,31,17.30
2020,04,16,13,32,17.40
2020,04,16,13,33,17.50
2020,04,16,13,34,17.50
2020,04,16,13,35,17.60
2020,04,16,13,36,17.70
2020,04,16,13,37,17.70
2020,04,16,13,38,17.70
2020,04,16,13,39,17.80
2020,04,16,13,40,17.80
2020,04,16,13,41,17.50
2020,04,16,13,42,17.20
2020,04,16,13,43,16.90
2020,04,16,13,44,16.50
2020,04,16,13,45,16.20
2020,04,16,13,46,16.00
2020,04,16,13,47,15.80
2020,04,16,13,48,15.80
2020,04,16,13,49,15.80
2020,04,16,13,50,15.80
2020,04,16,13,51,15.90
2020,04,16,13,52,16.10
2020,04,16,13,53,16.30
2020,04,16,13,54,16.10
2020,04,16,13,55,15.80
2020,04,16,13,56,15.50
2020,04,16,13,57,15.20
2020,04,16,13,58,15.00
2020,04,16,13,59,14.90
2020,04,16,14,00,15.00
2020,04,16,14,01,15.10
2020,04,16,14,02,15.10
2020,04,16,14,03,15.20
2020,04,16,14,04,15.40
2020,04,16,14,05,15.70
2020,04,16,14,06,15.90
2020,04,16,14,07,16.00
2020,04,16,14,08,15.80
2020,04,16,14,09,15.60
2020,04,16,14,10,15.40
2020,04,16,14,11,15.20
2020,04,16,14,12,15.00
2020,04,16,14,13,14.90
2020,04,16,14,14,15.00
2020,04,16,14,15,15.10
2020,04,16,14,16,15.20
2020,04,16,14,17,15.20
2020,04,16,14,18,15.20
2020,04,16,14,19,15.00
2020,04,16,14,20,15.00
2020,04,16,14,21,15.10
2020,04,16,14,22,15.20
2020,04,16,14,23,15.20
2020,04,16,14,24,15.30
2020,04,16,14,25,15.40
2020,04,16,14,26,15.50
2020,04,16,14,27,15.50
2020,04,16,14,28,15.40
2020,04,16,14,29,15.40
2020,04,16,14,30,15.50
2020,04,16,14,31,15.60
2020,04,16,14,32,15.60
2020,04,16,14,33,15.70
2020,04,16,14,34,15.80
2020,04,16,14,35,16.00
2020,04,16,14,36,16.10
2020,04,16,14,37,16.10
2020,04,16,14,38,16.20
2020,04,16,14,39,16.20
2020,04,16,14,40,16.20
2020,04,16,14,41,16.10
2020,04,16,14,42,16.10
2020,04,16,14,43,16.20
2020,04,16,14,44,16.30
2020,04,16,14,45,16.40
2020,04,16,14,46,16.60
2020,04,16,14,47,16.60
2020,04,16,14,48,16.70
2020,04,16,14,49,16.80
2020,04,16,14,50,17.00
2020,04,16,14,51,17.10
2020,04,16,14,52,17.20
2020,04,16,14,53,17.20
2020,04,16,14,54,17.30
2020,04,16,14,55,17.30
2020,04,16,14,56,17.20
2020,04,16,14,57,17.10
2020,04,16,14,58,17.10
2020,04,16,14,59,17.10
2020,04,16,15,00,17.20
2020,04,16,15,01,17.40
2020,04,16,15,02,17.40
2020,04,16,15,03,17.40
2020,04,16,15,04,17.40
2020,04,16,15,05,17.40
2020,04,16,15,06,17.40
2020,04,16,15,07,17.50
2020,04,16,15,08,17.50
2020,04,16,15,09,17.80
2020,04,16,15,10,17.80
2020,04,16,15,11,17.50
2020,04,16,15,12,17.20
2020,04,16,15,13,16.90
2020,04,16,15,14,16.60
2020,04,16,15,15,16.40
2020,04,16,15,16,16.40
2020,04,16,15,17,16.30
2020,04,16,15,18,16.20
2020,04,16,15,19,16.00
2020,04,16,15,20,15.70
2020,04,16,15,21,15.50
2020,04,16,15,22,15.50
2020,04,16,15,23,15.40
2020,04,16,15,24,15.40
2020,04,16,15,25,15.50
2020,04,16,15,26,15.60
2020,04,16,15,27,15.70
2020,04,16,15,28,15.80
2020,04,16,15,29,15.80
2020,04,16,15,30,15.80
2020,04,16,15,31,15.80
2020,04,16,15,32,15.70
2020,04,16,15,33,15.60
2020,04,16,15,34,15.50
2020,04,16,15,35,15.50
2020,04,16,15,36,15.60
2020,04,16,15,37,15.60
2020,04,16,15,38,15.40
2020,04,16,15,39,15.30
2020,04,16,15,40,15.30
2020,04,16,15,41,15.30
2020,04,16,15,42,15.40
2020,04,16,15,43,15.60
2020,04,16,15,44,15.80
2020,04,16,15,45,15.80
2020,04,16,15,46,15.80
2020,04,16,15,47,15.70
2020,04,16,15,48,15.60
2020,04,16,15,49,15.50
2020,04,16,15,50,15.70
2020,04,16,15,51,15.80
2020,04,16,15,52,15.80
2020,04,16,15,53,15.90
2020,04,16,15,54,16.10
2020,04,16,15,55,16.10
2020,04,16,15,56,16.20
2020,04,16,15,57,16.10
2020,04,16,15,58,16.10
2020,04,16,15,59,16.10
2020,04,16,16,00,16.10
2020,04,16,16,01,16.10
2020,04,16,16,02,16.10
2020,04,16,16,03,15.90
2020,04,16,16,04,15.80
2020,04,16,16,05,15.90
2020,04,16,16,06,16.00
2020,04,16,16,07,16.10
2020,04,16,16,08,16.20
2020,04,16,16,09,16.30
2020,04,16,16,10,16.30
2020,04,16,16,11,16.30
2020,04,16,16,12,16.40
2020,04,16,16,13,16.40
2020,04,16,16,14,16.40
2020,04,16,16,15,16.30
2020,04,16,16,16,16.20
2020,04,16,16,17,16.20
2020,04,16,16,18,16.20
2020,04,16,16,19,16.10
2020,04,16,16,20,16.10
2020,04,16,16,21,15.90
2020,04,16,16,22,15.90
2020,04,16,16,23,15.90
2020,04,16,16,24,16.00
2020,04,16,16,25,16.10
2020,04,16,16,26,16.00
2020,04,16,16,27,16.00
2020,04,16,16,28,16.00
2020,04,16,16,29,15.90
2020,04,16,16,30,15.90
2020,04,16,16,31,15.90
2020,04,16,16,32,15.90
2020,04,16,16,33,15.90
2020,04,16,16,34,15.80
2020,04,16,16,35,15.70
2020,04,16,16,36,15.70
2020,04,16,16,37,15.70
2020,04,16,16,38,15.80
2020,04,16,16,39,15.70
2020,04,16,16,40,15.70
2020,04,16,16,41,15.60
2020,04,16,16,42,15.60
2020,04,16,16,43,15.70
2020,04,16,16,44,15.80
2020,04,16,16,45,15.90
2020,04,16,16,46,16.10
2020,04,16,16,47,16.10
2020,04,16,16,48,16.20
2020,04,16,16,49,16.30
2020,04,16,16,50,16.20
2020,04,16,16,51,16.10
2020,04,16,16,52,16.00
2020,04,16,16,53,15.90
2020,04,16,16,54,15.90
2020,04,16,16,55,15.90
2020,04,16,16,56,15.80
2020,04,16,16,57,15.80
2020,04,16,16,58,15.80
2020,04,16,16,59,15.80
2020,04,16,17,00,15.80
2020,04,16,17,01,15.80
2020,04,16,17,02,15.80
2020,04,16,17,03,15.70
2020,04,16,17,04,15.70
2020,04,16,17,05,15.70
2020,04,16,17,06,15.80
2020,04,16,17,07,15.80
2020,04,16,17,08,15.80
2020,04,16,17,09,15.80
2020,04,16,17,10,15.80
2020,04,16,17,11,15.80
2020,04,16,17,12,15.90
2020,04,16,17,13,16.00
2020,04,16,17,14,16.10
2020,04,16,17,15,16.10
2020,04,16,17,16,16.20
2020,04,16,17,17,16.40
2020,04,16,17,18,16.40
2020,04,16,17,19,16.40
2020,04,16,17,20,16.40
2020,04,16,17,21,16.40
2020,04,16,17,22,16.40
2020,04,16,17,23,16.30
2020,04,16,17,24,16.20
2020,04,16,17,25,16.10
2020,04,16,17,26,16.10
2020,04,16,17,27,16.10
2020,04,16,17,28,16.10
2020,04,16,17,29,16.10
2020,04,16,17,30,16.10
2020,04,16,17,31,16.10
2020,04,16,17,32,16.10
2020,04,16,17,33,16.00
2020,04,16,17,34,15.90